Theta_e
318 320 322 325 320 317 318 319 322 326 329 330 331 331 331 331 333 334 333 333 332 333 334 334 334 334 334 334 333 331 330 329 330 330 330 329 327 325 322 321 319 318 318 317 317 317 317 317 317 315 314 314 315 315 317 325 333 335 335 334 334 336 337 338 339 339 337 335 335 330 324 326 332 336 339 342 342 341 340 335 333 333 330 331 335
319 320 323 327 324 319 317 321 327 329 330 330 330 331 331 331 331 333 333 333 333 333 334 334 334 335 336 335 334 333 331 329 329 329 329 329 330 329 328 327 325 323 321 320 319 318 318 317 317 316 315 314 314 314 315 321 330 335 334 334 334 334 335 337 338 339 338 336 331 326 323 325 331 335 339 341 340 341 339 334 334 335 333 335 337
319 319 324 329 327 322 316 318 325 328 329 329 329 329 330 329 330 330 331 332 332 332 332 333 334 336 337 336 334 333 332 331 330 329 328 328 329 330 331 331 330 328 326 323 321 320 319 319 318 317 316 315 314 313 314 317 325 332 334 334 334 333 334 336 337 338 339 336 328 324 324 324 330 334 337 341 340 341 337 333 336 337 338 338 338
318 319 322 329 330 327 322 318 320 324 328 329 328 328 327 328 329 329 329 329 329 331 331 331 333 335 336 336 335 334 333 332 331 330 329 328 328 328 329 331 331 331 329 327 324 321 319 319 319 318 317 316 315 313 312 313 318 327 333 335 334 333 334 335 336 337 339 335 327 324 326 324 327 331 336 340 340 341 337 333 337 338 340 339 339
317 318 321 327 330 329 326 322 318 318 324 327 328 329 326 326 328 329 330 328 327 330 330 331 333 334 334 335 335 335 334 332 331 330 331 331 330 329 328 329 330 331 331 331 328 324 320 318 319 319 318 317 317 314 312 311 313 320 329 334 333 333 333 334 336 336 338 335 326 324 327 325 324 329 335 338 338 340 338 336 338 339 340 340 340
316 318 319 322 324 322 320 318 318 318 320 324 327 329 329 328 327 326 328 326 325 327 329 331 332 333 334 335 335 335 335 335 334 332 333 334 333 333 332 331 330 329 330 332 332 330 326 319 316 317 319 318 318 315 312 311 310 313 322 331 333 333 333 334 335 335 338 335 326 325 328 326 323 327 332 335 337 339 339 338 339 339 339 340 340
315 316 316 318 318 315 312 313 318 322 322 325 327 328 329 330 329 327 326 325 322 323 325 328 329 330 332 333 333 334 335 336 336 334 334 334 334 333 333 332 331 331 329 330 332 332 331 326 319 315 316 317 317 315 314 311 310 310 315 325 332 333 333 334 336 336 338 335 325 325 330 328 325 326 328 333 337 339 340 338 339 339 339 340 340
314 314 313 314 314 313 312 312 315 319 322 327 327 327 328 329 330 329 328 327 322 321 322 323 325 326 328 330 329 330 333 334 334 333 332 331 331 331 332 332 331 331 331 329 329 330 333 333 327 319 315 314 313 314 316 314 310 309 311 318 328 333 333 334 336 337 339 335 326 327 331 329 327 326 327 330 336 339 340 339 338 338 339 340 339
313 313 313 313 313 312 312 312 312 313 317 322 324 325 325 327 330 329 329 327 325 325 323 323 323 323 325 328 330 329 330 330 331 330 327 324 325 326 327 328 328 329 330 329 327 326 330 334 333 328 323 321 319 318 321 320 314 310 310 315 325 330 332 334 336 337 339 335 327 330 333 330 327 327 328 330 334 338 339 339 338 338 339 339 338
314 313 313 313 313 313 312 312 312 313 313 315 319 321 323 325 328 330 330 329 328 328 327 326 323 322 322 324 328 328 326 326 328 329 327 324 324 325 325 325 324 326 327 326 325 325 327 331 333 333 331 330 329 327 326 327 322 315 312 318 327 328 330 335 338 337 338 335 328 330 334 331 328 327 329 331 333 337 338 338 338 338 338 338 338
314 314 314 314 314 313 313 313 313 313 313 313 314 316 321 325 327 330 331 331 330 329 329 329 327 326 322 319 321 323 324 324 323 324 327 328 327 328 327 327 327 327 327 325 325 324 326 329 332 333 332 332 332 330 330 331 331 324 316 320 328 329 332 337 339 338 337 335 327 326 332 333 331 328 329 331 333 335 335 336 337 337 337 338 338
313 314 314 314 314 314 314 314 313 313 313 313 314 314 318 323 326 328 330 330 329 330 331 331 331 329 328 326 325 323 323 323 321 321 323 325 326 326 327 328 327 327 328 328 327 325 324 327 330 333 333 332 331 330 331 332 333 333 324 320 325 329 333 337 339 339 337 335 327 323 328 333 332 329 329 329 332 332 332 333 334 336 337 337 337
311 311 312 312 312 312 312 313 313 312 313 313 314 314 315 318 323 326 329 330 330 331 332 332 331 330 330 330 329 328 326 323 319 317 317 320 321 321 324 325 324 324 326 329 330 328 325 325 328 331 333 332 331 330 330 330 332 334 331 324 324 327 331 334 338 339 337 334 327 322 325 331 332 330 328 328 333 333 332 330 331 335 337 337 337
309 309 310 310 310 310 310 310 310 310 311 311 312 313 313 314 317 321 325 327 329 330 331 331 331 331 331 331 331 330 329 327 322 317 313 316 318 320 322 322 322 323 323 326 330 330 327 325 327 328 331 332 332 331 329 331 330 331 334 330 326 327 329 332 338 338 337 332 324 322 326 331 331 329 327 328 333 334 333 330 329 333 335 336 335
308 308 308 308 309 308 308 308 308 308 308 308 309 310 311 312 313 315 318 321 324 326 328 329 330 331 331 331 331 330 331 330 328 325 319 316 316 318 320 319 321 322 322 324 327 329 328 326 325 327 330 331 332 332 330 331 330 329 332 333 328 328 328 332 337 337 337 331 323 326 331 333 330 328 326 325 329 333 334 330 329 329 330 333 332
308 307 307 307 307 307 307 307 307 306 306 306 307 307 307 308 310 310 312 314 317 320 322 324 327 328 329 330 330 330 332 331 330 330 328 324 319 316 316 316 318 318 320 325 326 326 327 327 325 326 329 330 331 332 331 330 330 329 330 332 330 329 328 330 334 336 337 331 323 328 334 334 331 328 325 323 325 332 335 332 327 325 328 332 333
306 306 306 306 306 306 306 306 306 306 306 306 306 306 306 306 307 307 308 309 311 313 315 318 321 323 326 327 328 329 330 330 330 330 330 328 326 323 318 315 316 315 316 321 324 324 324 325 326 326 327 329 330 330 330 329 329 329 329 331 331 330 328 328 331 334 336 332 323 323 330 334 333 328 327 326 326 330 334 334 327 323 330 333 332
305 305 305 305 305 306 306 306 306 306 306 306 306 306 306 306 306 306 307 307 308 309 310 312 314 317 320 321 322 324 324 326 328 329 328 328 329 327 322 319 317 315 315 316 319 322 321 322 324 326 327 327 328 328 328 327 327 328 328 330 331 331 329 327 328 331 334 334 327 321 322 330 333 328 327 329 330 331 332 333 330 325 330 333 332
305 305 305 305 305 305 306 306 306 305 305 304 304 304 305 305 306 306 306 307 306 307 307 308 309 312 316 319 320 319 319 320 322 324 325 325 325 324 324 325 322 320 316 315 318 320 320 319 321 325 327 327 326 326 327 327 326 326 327 329 330 331 330 327 326 329 332 333 332 326 321 325 331 329 326 328 329 332 331 330 333 329 327 329 331
305 305 305 305 305 305 305 305 304 303 302 302 301 301 302 302 303 304 305 306 306 307 306 306 307 307 311 316 321 322 320 319 318 317 317 318 318 319 323 326 326 325 322 320 319 319 319 317 318 320 323 326 325 324 325 325 325 324 325 327 328 330 331 330 325 326 331 332 331 330 325 324 329 329 326 327 328 331 332 330 332 333 329 327 329
305 305 305 305 305 305 304 304 303 302 301 301 300 300 300 300 300 300 301 302 304 305 306 306 306 306 306 309 314 321 324 323 320 318 317 316 318 320 320 322 324 325 325 325 323 322 323 321 319 318 319 322 324 323 324 324 323 323 323 324 326 328 330 331 328 325 328 331 330 329 328 327 328 328 326 328 330 330 333 332 332 334 332 330 329
305 304 304 304 304 303 303 302 302 301 300 300 300 299 299 299 299 299 299 300 300 301 302 304 304 305 305 306 308 314 321 323 324 323 322 322 323 324 322 322 323 323 322 324 324 322 321 322 323 321 319 319 322 323 323 323 322 323 324 323 323 325 328 329 330 327 326 330 330 328 329 329 328 331 329 330 332 332 332 333 333 334 333 332 331
303 303 302 302 302 301 301 300 300 300 300 300 299 299 299 299 299 299 299 299 299 299 300 300 301 302 304 304 305 308 313 318 321 323 324 324 325 326 325 325 326 326 323 322 324 323 318 319 323 324 322 320 320 323 323 322 322 322 324 325 325 325 328 329 330 329 327 328 329 329 328 328 329 332 332 331 333 333 333 333 333 333 333 334 333
300 299 299 299 299 299 299 299 298 298 298 298 298 298 297 297 298 298 298 298 299 299 299 299 299 299 300 302 303 304 307 311 315 318 320 322 323 324 326 326 326 327 326 323 324 325 321 319 320 323 325 323 321 322 322 322 321 322 323 326 328 328 330 330 329 330 329 327 328 329 328 327 329 330 332 332 332 332 333 333 332 332 333 335 334
298 298 298 298 298 298 298 297 297 296 296 296 296 297 297 297 297 297 297 297 298 298 298 299 299 299 298 299 300 301 303 305 309 313 317 318 320 321 323 324 324 325 327 327 326 326 322 319 319 321 323 325 325 323 322 322 320 320 321 324 326 327 330 331 330 330 329 328 328 330 329 328 328 328 330 332 332 332 332 334 334 332 333 335 334
298 298 298 297 297 297 296 296 296 296 296 296 296 296 296 297 297 297 297 297 297 298 298 298 299 299 298 298 298 299 300 301 303 306 311 315 317 318 320 321 322 323 324 326 327 327 325 319 318 321 322 324 326 324 323 323 321 320 319 320 322 323 327 331 331 330 330 330 328 329 329 328 325 324 327 330 332 332 331 333 333 332 334 335 334
297 297 296 296 296 296 296 296 295 296 296 296 296 296 296 296 296 296 297 297 297 297 297 298 298 298 298 297 297 297 297 298 300 301 303 308 312 315 317 318 320 321 322 324 325 326 327 323 320 319 320 323 325 323 323 324 321 319 318 317 318 320 325 329 329 328 330 331 328 329 329 327 325 323 324 328 332 331 329 332 332 331 333 334 334
295 295 295 295 295 295 295 295 295 295 295 295 295 296 296 296 296 296 297 296 297 297 297 297 297 297 297 297 297 296 296 296 297 298 299 301 305 310 313 314 316 318 319 321 323 324 325 325 324 322 319 321 324 323 323 323 319 317 317 316 316 317 322 327 328 328 330 331 329 329 329 328 326 323 324 326 329 330 329 331 332 331 333 334 334
294 294 294 294 294 294 295 295 295 295 295 295 295 295 295 296 296 296 296 296 296 297 297 297 297 297 297 296 296 296 296 296 295 296 296 297 299 302 306 309 311 314 317 318 320 322 323 323 325 326 324 321 320 322 324 323 320 320 317 314 315 314 316 322 327 329 330 332 330 329 329 329 327 324 323 325 327 330 330 331 332 332 334 334 333
294 294 293 293 293 294 295 295 295 295 294 295 295 295 295 295 296 295 296 296 296 296 296 296 296 296 296 296 296 296 296 296 295 295 294 295 296 297 300 303 306 309 312 315 317 319 322 323 322 324 328 326 321 321 324 324 323 323 318 314 314 313 312 315 324 329 329 331 331 330 330 329 328 325 324 324 327 330 330 330 331 332 333 334 332
294 294 294 293 294 294 294 294 294 294 294 294 295 295 295 295 295 295 295 295 295 295 296 296 296 296 295 295 295 295 295 295 295 295 294 294 294 295 296 298 301 303 305 310 314 316 318 320 321 323 327 328 326 322 322 325 325 323 319 314 313 315 314 314 321 328 327 328 331 329 330 330 329 327 326 325 326 330 331 331 331 331 333 333 333
294 294 293 293 293 294 294 294 294 294 294 294 294 294 294 294 295 295 294 294 294 294 295 295 295 295 295 295 295 294 294 295 295 295 294 294 294 294 295 296 297 299 300 302 307 312 315 317 320 322 324 325 328 326 323 325 325 323 320 315 315 317 316 315 321 327 324 323 328 329 330 331 329 328 327 326 326 328 330 330 330 331 333 334 334
293 293 293 293 293 293 293 293 293 294 294 294 294 294 294 294 294 294 294 294 294 294 294 294 294 294 295 294 294 294 294 294 294 294 294 294 294 294 295 295 295 296 297 298 300 305 311 315 318 320 322 324 327 329 326 326 325 323 322 317 316 317 315 316 320 324 324 323 328 330 330 330 328 328 328 327 326 327 329 329 330 331 332 333 334
293 293 293 293 293 293 293 293 293 293 294 294 294 294 294 294 294 295 295 295 295 295 295 294 294 294 294 294 294 294 293 293 293 294 294 294 294 294 294 295 295 296 296 296 297 299 303 310 315 318 321 322 325 328 328 326 325 324 323 318 315 315 315 317 320 322 324 324 326 328 328 329 328 328 329 328 327 327 329 330 330 331 332 333 333
293 293 293 293 292 292 292 293 293 294 294 295 295 295 294 294 294 294 294 294 294 295 295 295 294 294 294 294 294 294 294 293 293 293 294 294 294 294 294 295 295 296 296 296 296 297 298 302 308 314 318 320 322 326 329 327 326 325 323 319 316 315 315 318 322 324 325 325 325 326 328 329 328 329 329 329 328 329 330 330 329 331 332 332 333
292 292 292 292 292 292 292 292 293 294 295 295 294 294 294 294 294 294 294 294 294 294 294 294 294 294 294 294 294 293 293 293 293 293 293 294 294 295 295 295 295 295 296 296 296 296 297 298 301 306 311 317 319 321 327 328 326 325 323 320 317 317 317 319 322 325 326 326 325 325 327 328 328 329 330 329 329 329 330 330 330 331 333 333 333
292 292 292 292 292 292 292 293 294 294 294 294 294 294 294 293 293 293 293 293 293 293 293 293 293 293 293 293 293 292 293 293 293 293 293 293 294 294 295 295 295 296 296 297 296 296 297 296 298 300 303 310 316 317 320 327 327 324 324 322 319 319 319 319 321 324 326 327 326 325 325 326 327 327 329 328 327 328 331 330 330 333 334 334 334
291 292 292 292 292 292 292 293 293 293 293 293 293 293 293 293 293 293 293 293 293 293 293 293 292 292 292 292 292 292 292 292 292 292 293 293 294 294 295 295 295 296 296 297 297 297 297 296 296 298 299 303 309 313 314 321 326 324 324 323 321 320 320 320 321 324 326 326 326 326 325 325 325 326 327 328 328 329 331 330 331 333 334 334 334
292 292 292 291 291 291 292 292 292 292 293 292 293 293 293 292 292 292 292 292 292 292 292 292 292 292 292 292 292 292 292 292 292 292 292 293 294 294 295 295 295 296 296 296 297 297 297 297 296 297 298 299 303 309 310 314 322 324 323 323 321 321 322 322 322 324 327 327 326 325 325 325 325 326 327 328 329 330 330 330 330 332 333 334 334
292 292 291 291 291 291 292 292 292 292 292 292 292 292 292 292 292 292 292 291 291 292 292 292 293 293 293 292 292 292 292 292 292 291 291 292 293 294 294 295 295 295 296 296 297 297 297 298 297 296 297 298 301 306 308 309 315 322 322 322 322 322 323 324 323 323 326 327 327 326 325 325 325 326 327 329 330 329 329 328 328 330 333 334 334
292 291 290 290 291 291 291 291 291 291 291 292 292 291 291 291 291 291 291 291 291 292 292 292 293 293 293 292 292 292 292 292 292 292 291 290 291 292 293 294 295 295 295 296 296 297 297 298 298 297 297 298 299 303 306 306 308 316 321 322 323 324 325 326 325 324 325 325 326 326 326 326 326 326 326 328 329 328 328 327 326 329 333 334 333
291 290 290 290 290 290 290 290 290 290 291 291 291 291 291 290 290 290 290 291 291 291 292 292 292 292 292 292 292 292 292 292 291 291 291 290 290 291 292 292 294 295 295 295 296 296 297 298 298 298 297 298 299 300 302 303 304 310 318 321 322 325 326 327 327 326 326 326 325 325 325 324 324 324 324 325 326 327 327 326 325 328 331 332 332
290 290 290 290 290 290 290 290 290 290 290 290 290 290 290 290 290 290 290 291 291 291 292 292 292 292 292 292 292 292 292 292 291 290 290 290 290 290 291 292 293 295 295 295 296 296 297 298 298 298 297 298 300 299 300 302 303 306 314 320 321 322 325 326 327 327 327 326 326 325 324 323 323 322 322 323 324 325 325 324 325 328 329 329 330
290 290 290 290 290 290 289 289 289 289 290 290 290 290 290 290 290 291 291 291 292 292 293 293 292 292 292 292 292 291 291 291 291 290 289 290 290 289 290 291 293 294 295 295 295 295 297 298 298 298 297 298 300 300 299 301 303 304 310 319 320 320 321 323 325 326 326 326 325 326 325 323 322 320 319 321 322 323 324 323 323 327 328 328 328
290 290 290 290 289 289 289 289 289 289 289 289 289 289 290 290 290 291 291 291 292 292 292 292 292 292 291 291 291 291 290 290 290 290 289 289 290 289 289 290 291 293 294 294 295 295 296 297 297 297 297 297 300 301 299 300 302 303 306 313 318 319 320 321 323 323 325 325 324 324 325 324 323 320 319 319 319 320 324 324 324 328 328 328 328
290 290 289 289 289 289 289 289 289 289 289 289 289 289 289 290 290 290 290 291 291 291 290 290 291 291 291 291 291 291 290 289 289 289 289 288 289 289 289 289 290 292 293 293 294 295 295 296 296 297 297 297 300 301 300 299 301 302 303 307 312 317 320 321 321 321 321 323 323 321 322 322 321 320 319 318 318 318 321 326 327 328 328 328 328
290 290 289 289 289 289 289 289 289 289 289 289 289 289 289 289 289 289 289 290 290 290 290 289 289 290 290 291 291 291 289 289 288 288 287 288 288 289 290 290 291 292 293 293 293 294 294 294 295 297 296 296 299 302 301 300 300 301 302 305 306 310 317 321 320 319 318 319 320 319 319 320 320 320 319 318 318 317 319 324 327 328 327 327 327
290 289 289 289 289 289 289 289 289 289 289 289 289 289 289 289 289 289 289 289 289 289 290 290 289 289 289 290 290 290 289 287 286 286 286 286 288 289 290 291 292 293 293 293 293 293 293 294 296 297 296 297 299 300 300 300 300 300 300 304 305 305 311 319 321 320 319 318 319 320 319 319 319 319 319 319 319 318 317 320 324 327 327 327 326
290 289 289 289 289 289 289 289 289 289 289 288 289 289 289 289 289 289 289 290 289 289 289 289 289 289 288 289 289 289 288 286 285 285 285 286 287 288 289 290 291 293 293 293 293 293 293 295 296 296 296 297 297 298 298 298 299 300 299 301 304 304 306 314 321 321 320 320 319 320 320 319 320 320 319 319 318 318 317 317 321 325 326 326 325
290 289 289 289 289 289 289 289 289 289 289 288 289 289 289 289 289 289 289 290 289 289 288 288 288 288 288 289 288 287 286 285 285 284 284 284 285 287 288 289 290 291 293 293 294 295 295 295 295 295 296 297 297 297 297 297 298 299 300 299 302 303 303 308 318 321 320 320 320 320 319 320 323 322 320 319 318 318 317 316 318 321 324 324 323
290 289 289 289 289 289 289 289 289 288 288 288 289 289 289 289 289 289 289 289 289 288 288 287 287 287 287 288 288 287 285 284 283 283 282 282 283 284 286 287 288 290 292 293 294 295 296 296 295 296 296 296 296 297 296 296 296 298 299 299 300 301 301 304 313 320 320 320 320 320 319 319 321 323 322 320 319 318 318 317 316 317 320 322 323
Wind_Speed
16 16 19 22 22 20 19 17 12 8 6 6 6 8 9 9 9 9 9 9 10 10 11 10 10 9 7 6 6 6 7 7 6 6 6 7 8 9 11 11 12 12 12 12 12 12 12 12 12 12 12 13 13 13 14 14 12 13 14 14 15 16 17 17 14 13 12 11 11 11 9 8 7 8 10 13 15 18 20 17 16 17 18 18 18
16 15 16 20 22 22 19 18 13 8 7 7 6 7 8 9 9 9 10 10 10 10 11 11 11 10 9 9 9 8 8 9 9 8 7 7 7 8 9 10 11 12 12 13 13 13 14 14 13 13 13 13 13 13 13 14 13 12 14 14 15 16 18 17 16 14 14 12 12 11 11 9 7 9 10 13 16 18 19 17 17 18 18 18 19
13 13 14 17 20 21 18 17 14 10 9 8 8 8 8 8 9 9 9 10 11 11 11 11 12 11 11 10 10 10 10 10 10 10 9 8 8 8 8 9 10 11 12 13 13 13 14 15 15 15 15 15 14 14 13 15 15 13 13 14 15 16 17 17 16 15 15 13 13 12 11 10 7 8 11 13 16 18 18 18 18 18 19 19 21
11 11 11 13 15 18 17 16 13 11 8 7 8 9 9 9 9 9 9 10 11 11 11 11 11 12 12 11 11 11 11 11 11 12 11 10 9 9 9 9 9 10 11 13 14 14 14 15 17 17 17 16 16 15 13 14 16 15 13 14 15 15 16 17 17 17 16 14 14 14 13 12 9 7 11 13 15 17 18 19 20 19 20 20 21
10 10 8 8 11 13 14 13 12 10 7 7 7 9 10 10 11 10 9 11 12 11 13 13 12 12 12 12 12 12 12 12 12 13 13 12 12 13 13 11 10 10 10 12 13 14 15 16 17 18 19 17 17 17 15 14 16 16 15 15 15 15 16 17 18 18 18 16 16 16 15 14 12 10 11 14 16 17 18 20 20 20 20 21 23
9 9 9 8 9 10 11 10 9 8 7 6 6 8 10 10 10 11 11 12 13 11 13 14 13 14 13 13 13 13 13 14 13 13 13 12 13 14 15 14 13 12 11 12 12 14 15 16 17 18 20 19 19 18 16 15 15 16 17 17 16 17 17 17 19 20 19 19 19 18 17 17 15 13 11 13 16 18 19 20 20 20 20 22 22
8 8 10 9 9 10 11 9 6 6 5 5 4 5 7 9 10 11 12 12 13 13 13 13 14 15 15 15 14 13 14 15 14 13 13 13 14 15 16 16 16 16 15 14 14 15 15 16 17 18 19 20 20 19 18 16 15 16 17 18 18 19 19 18 19 21 21 21 22 20 20 19 17 15 11 13 16 17 18 19 20 20 20 21 21
6 7 9 9 9 9 9 8 6 4 4 4 4 4 4 7 8 10 13 12 13 15 15 14 14 14 15 16 16 15 15 14 15 15 16 15 15 16 16 17 17 17 17 16 16 17 16 16 17 17 18 18 19 20 18 17 16 16 17 19 20 20 20 19 19 20 22 22 23 22 22 21 19 17 13 13 16 18 19 19 20 20 21 21 21
4 5 7 8 9 9 8 8 7 5 5 5 5 6 5 5 6 8 11 12 13 14 15 15 16 15 15 16 17 15 14 15 16 17 18 18 18 18 17 18 19 19 18 17 17 18 18 17 16 17 17 17 18 19 19 18 18 17 18 19 20 21 21 19 18 20 22 23 24 24 23 22 21 18 15 15 17 20 20 20 20 20 21 22 23
4 4 5 6 7 8 8 9 8 7 6 6 6 7 7 7 7 7 8 11 12 13 14 15 17 17 17 16 17 16 15 17 18 18 19 19 20 20 19 20 21 21 20 20 20 19 19 18 18 18 18 19 19 19 19 19 20 19 19 19 20 20 20 20 19 21 23 25 26 26 24 23 22 19 17 17 18 20 21 20 20 22 22 23 24
6 4 4 5 5 6 7 8 8 8 7 7 7 6 7 8 9 8 8 10 11 13 14 15 16 17 18 18 17 18 18 19 19 20 19 19 21 21 21 21 21 22 22 23 22 20 20 19 20 20 20 21 21 21 21 21 22 21 20 20 20 19 19 21 22 23 25 27 28 28 26 24 23 21 19 18 20 20 20 19 20 22 23 23 23
8 7 6 6 6 7 7 7 8 8 9 8 8 7 8 8 10 10 9 10 10 12 14 16 17 17 18 19 18 18 19 20 21 21 20 21 22 22 22 23 23 24 23 22 22 22 21 21 21 21 21 22 23 23 23 22 23 23 22 21 21 19 20 22 25 26 28 29 30 30 27 26 24 22 21 20 22 22 21 20 20 22 23 23 24
10 10 10 10 10 10 11 11 11 11 11 11 11 10 10 9 10 11 11 11 11 12 14 15 16 17 19 20 21 20 20 20 22 24 23 22 23 23 23 24 26 26 25 24 23 22 22 22 22 23 23 22 24 25 24 24 24 25 24 22 21 21 21 23 25 28 29 30 31 31 29 29 26 23 22 21 23 24 23 22 21 22 23 23 24
11 12 13 13 14 14 15 16 16 16 16 15 14 13 12 12 11 12 13 13 14 14 15 15 15 17 18 20 21 22 23 22 22 25 27 25 23 23 23 25 27 27 26 26 25 23 22 23 23 24 24 24 24 25 26 25 25 25 26 25 23 22 22 23 25 28 29 30 32 32 31 31 29 25 23 22 25 25 25 25 24 23 22 23 23
11 14 14 14 15 15 16 17 18 19 19 19 18 17 16 14 12 12 13 15 16 16 16 17 17 17 17 19 21 22 23 24 24 24 26 26 26 25 25 25 26 27 28 27 26 25 24 24 25 26 26 26 25 25 26 27 27 26 27 27 25 23 23 24 24 26 29 29 31 32 31 33 31 28 26 25 26 27 27 27 27 26 25 24 24
11 13 13 14 15 16 16 18 19 20 21 21 21 20 20 18 16 14 13 13 15 17 18 19 19 19 19 19 21 22 23 24 25 26 26 25 27 28 29 29 28 28 28 28 27 27 27 26 27 28 28 28 27 26 27 28 29 27 28 28 28 26 24 24 25 26 29 30 31 31 31 32 31 30 30 28 27 28 29 28 28 29 28 27 27
12 12 13 15 16 16 17 18 19 21 21 22 22 22 21 21 20 19 17 15 13 14 17 19 20 21 22 22 22 23 24 23 24 26 27 27 27 27 28 31 32 31 30 30 31 30 30 29 29 30 29 29 29 28 28 28 29 29 29 30 30 29 27 26 26 27 29 32 32 33 33 33 32 31 30 29 28 28 29 29 28 28 29 29 29
13 13 14 16 16 18 19 19 21 22 22 22 22 22 22 22 21 21 20 19 17 16 14 15 18 20 22 23 25 26 26 25 25 25 25 26 28 27 27 30 32 34 33 32 33 32 32 31 30 30 30 29 29 29 29 29 29 30 30 32 32 31 31 28 27 28 29 33 34 35 36 35 34 33 31 28 28 29 30 30 29 30 30 30 30
13 14 15 16 17 19 19 20 21 22 23 23 22 22 22 21 22 22 21 21 20 19 18 16 15 17 19 21 23 25 26 27 28 28 26 26 27 29 31 32 31 32 32 31 32 33 33 33 32 31 31 30 30 30 30 30 30 31 31 33 33 33 35 32 29 30 31 33 35 36 37 38 36 35 33 30 29 31 31 31 32 32 31 30 30
13 14 15 16 17 18 19 21 21 22 22 22 23 22 22 22 21 21 21 21 20 20 20 19 17 16 16 19 21 22 24 26 28 29 30 30 30 30 32 33 32 33 32 31 31 32 33 33 33 33 33 32 32 32 31 31 31 32 32 33 33 33 37 36 31 31 33 34 37 38 39 39 39 38 36 33 31 33 33 31 33 34 32 31 31
13 13 15 15 16 18 19 21 21 23 25 26 27 27 26 25 24 23 22 21 21 21 20 20 20 19 17 17 19 22 23 24 25 27 29 30 30 29 31 32 31 33 34 33 31 31 32 32 34 34 35 35 34 34 33 33 33 33 34 34 33 34 37 38 33 33 35 36 38 40 40 40 40 39 37 34 33 34 34 32 34 35 34 33 33
13 13 14 15 16 18 20 22 24 27 30 32 33 33 31 29 28 27 25 24 22 22 22 21 21 21 20 19 18 20 22 24 25 25 26 28 29 28 30 31 31 32 33 34 33 31 31 33 35 35 35 36 36 36 35 35 34 34 35 34 34 35 37 39 37 36 36 37 40 41 41 41 40 40 37 35 34 34 34 33 35 36 35 35 35
14 15 16 17 18 19 22 24 27 30 33 35 35 34 33 32 31 30 27 26 24 24 23 23 22 21 21 21 20 19 20 22 24 25 26 28 29 29 28 29 31 31 31 33 34 33 32 34 35 35 35 36 37 37 35 35 35 35 35 34 35 36 36 38 39 39 40 39 41 44 43 43 43 40 38 36 36 35 35 35 35 35 37 37 37
16 17 18 20 20 22 25 28 30 32 33 33 33 33 33 33 32 31 30 29 28 26 25 24 23 22 22 22 22 22 22 22 23 25 27 28 29 29 29 29 30 29 29 32 34 34 33 35 36 36 36 37 38 37 36 36 35 35 35 34 35 35 35 38 39 41 43 41 41 45 45 45 45 42 39 37 36 35 36 37 37 37 39 39 39
17 18 19 21 23 25 28 30 30 30 31 31 32 32 32 32 32 31 31 30 30 30 29 27 25 23 23 23 24 24 24 24 23 25 26 27 27 28 29 29 30 28 28 30 33 36 35 36 37 37 37 39 39 37 38 38 37 36 35 35 35 35 36 38 40 42 44 43 42 45 46 46 46 44 41 38 36 36 37 39 39 39 40 41 41
17 19 21 23 24 26 28 29 29 29 29 30 31 32 32 32 32 31 31 31 30 30 30 30 28 26 25 24 25 26 26 27 26 25 26 27 28 28 28 28 29 29 28 29 33 36 36 38 39 38 39 39 39 39 39 40 39 38 37 36 35 34 36 38 40 43 46 46 44 45 47 47 47 47 43 39 36 36 38 41 40 39 41 43 43
18 20 22 23 24 26 27 27 27 28 29 30 31 32 32 32 32 31 30 30 30 31 31 31 30 30 28 26 25 26 28 29 29 28 28 28 30 30 30 29 29 30 29 29 32 34 36 39 40 41 41 40 40 41 41 41 40 39 38 37 36 34 35 38 40 43 48 50 47 46 48 48 48 48 45 41 37 36 39 42 41 41 42 45 45
18 20 21 22 23 24 24 24 25 27 29 30 31 32 32 32 31 30 30 30 30 30 31 32 32 32 31 30 28 27 27 29 30 31 31 31 31 31 32 32 31 31 31 30 31 33 36 39 40 42 44 43 43 43 42 41 39 38 39 38 37 36 35 39 41 43 49 53 49 48 50 49 50 49 46 43 38 37 40 41 41 42 44 47 46
18 19 20 21 21 22 22 22 24 26 28 29 30 31 32 32 31 30 30 30 30 31 31 32 32 33 33 33 32 31 29 29 30 32 33 34 34 33 34 34 34 33 33 33 32 32 34 37 39 41 44 45 45 44 42 41 40 38 40 40 39 38 37 39 42 43 48 55 53 49 51 51 51 50 48 44 40 39 41 41 42 43 46 48 46
19 19 20 20 20 20 20 21 23 25 26 28 29 30 31 31 31 31 30 30 30 31 31 32 33 34 35 34 34 34 33 32 32 32 33 34 36 36 36 36 37 35 35 36 35 34 34 35 37 39 44 47 48 45 43 44 44 41 41 41 40 40 40 40 42 44 47 52 54 50 51 53 53 52 49 46 44 41 42 42 43 43 45 48 46
19 20 21 20 19 19 19 20 22 23 25 27 28 29 30 31 31 31 31 31 31 30 30 30 32 34 35 36 36 36 36 36 35 34 33 34 35 36 37 37 38 37 36 37 37 37 36 35 35 38 43 48 50 48 45 46 45 41 41 41 40 39 40 42 42 44 46 49 54 52 52 55 55 54 52 49 47 44 42 43 43 42 44 47 47
19 21 21 19 18 19 19 20 21 22 25 26 28 29 30 31 31 32 32 34 35 35 33 32 32 32 34 36 37 37 37 38 38 37 36 35 35 35 35 36 38 38 38 39 39 38 39 38 37 38 40 44 51 54 48 47 46 42 42 41 39 37 37 41 42 44 46 48 54 55 53 54 55 55 53 51 50 46 42 42 42 41 44 48 49
20 20 20 19 19 19 19 20 21 23 25 27 28 30 30 31 32 33 33 35 36 38 38 37 36 35 35 36 37 38 38 38 39 39 38 36 35 35 34 34 35 37 39 40 41 41 40 40 39 39 38 40 49 58 51 48 48 44 44 42 40 40 37 40 43 44 46 47 51 53 50 50 52 52 51 52 51 47 44 43 43 43 45 49 51
20 20 20 20 19 19 19 21 22 25 27 28 29 30 31 31 32 33 33 34 35 37 38 40 40 39 39 39 39 40 41 40 40 40 39 37 36 35 36 35 34 34 36 38 40 41 41 41 40 40 39 36 44 57 56 53 51 46 46 45 43 43 40 40 44 44 45 46 47 49 50 50 51 52 51 52 53 51 47 44 43 46 48 51 52
20 20 21 21 20 20 21 23 24 26 28 29 30 31 31 32 32 33 34 35 35 37 38 40 41 40 41 42 43 44 44 44 43 41 40 39 38 37 37 37 36 35 35 36 37 39 40 41 40 40 40 33 36 50 59 55 52 49 46 47 46 43 42 42 43 44 45 47 48 49 52 53 53 53 52 53 55 54 50 45 43 45 49 52 54
19 20 21 21 21 22 24 25 27 29 29 30 30 30 31 31 32 33 34 36 37 38 39 41 42 42 43 44 45 46 47 47 46 44 42 41 40 40 39 38 38 38 37 36 37 38 38 41 40 40 41 37 33 40 54 58 53 51 48 47 47 45 43 44 44 45 45 46 47 48 50 54 54 53 52 53 55 55 51 47 44 45 51 56 58
18 20 22 23 24 25 26 27 29 30 30 29 29 29 30 31 33 34 35 36 37 39 41 42 43 43 44 45 46 47 47 48 48 45 43 42 41 42 41 40 39 39 39 38 38 39 38 40 41 40 41 42 37 35 42 56 59 53 50 50 48 47 46 45 46 46 46 48 48 49 49 50 52 52 52 53 55 54 50 46 44 48 56 62 63
19 21 23 24 25 26 27 28 29 29 29 29 29 30 31 32 33 34 36 37 38 40 41 43 43 43 44 44 44 45 46 47 47 45 44 43 42 43 42 41 40 39 40 40 39 39 40 40 41 41 41 42 43 36 34 44 61 60 54 53 50 48 47 46 46 46 46 49 50 51 51 51 52 53 54 56 57 55 50 44 44 49 53 59 64
20 23 24 24 25 26 27 28 28 28 28 28 29 30 32 33 35 36 37 38 40 40 41 42 43 43 43 43 42 43 45 46 46 46 45 44 42 42 42 41 40 40 40 41 41 40 41 41 40 41 42 42 44 43 35 37 49 60 57 56 54 50 48 46 45 46 47 49 50 53 54 52 52 54 55 57 59 57 52 44 42 44 47 56 65
22 23 24 25 26 27 28 27 27 28 28 29 30 32 34 36 38 39 39 40 40 41 40 40 41 41 42 42 42 43 45 47 47 46 45 45 43 41 41 40 40 41 41 41 41 40 40 42 42 40 42 43 44 46 40 35 36 45 51 51 52 50 49 48 46 45 47 47 48 53 56 56 54 54 53 54 55 54 51 45 40 36 38 53 64
22 23 23 25 26 27 28 28 27 28 29 30 32 33 36 38 39 39 40 41 41 42 41 42 42 42 43 43 45 46 47 48 48 46 45 44 44 43 42 41 41 41 42 42 41 41 40 41 43 40 40 42 43 46 43 37 39 36 40 45 48 51 49 49 48 45 46 46 44 45 49 50 49 46 44 45 48 46 45 45 40 34 34 47 53
20 21 23 25 26 27 27 27 27 28 28 30 31 33 35 36 38 38 40 41 42 43 44 44 44 44 45 45 47 49 50 50 50 48 45 42 41 42 43 42 42 42 42 43 41 41 41 40 41 40 38 39 41 44 43 40 41 38 37 42 42 46 48 49 50 47 47 49 47 44 40 37 36 35 33 32 36 38 41 45 42 37 38 42 43
19 20 22 24 25 26 26 26 27 28 29 30 31 33 34 35 36 37 39 42 43 43 44 44 45 46 47 48 49 50 52 52 51 50 48 45 40 40 42 42 42 43 42 43 42 41 42 40 38 38 38 39 40 42 43 40 39 40 37 38 37 38 41 45 49 51 52 52 54 55 49 41 34 31 31 28 28 31 35 42 42 40 42 43 41
18 20 22 24 24 25 26 27 28 29 29 31 32 34 35 35 35 36 37 40 42 43 44 45 47 49 50 50 50 50 50 50 49 49 50 49 44 40 41 42 41 41 42 43 43 42 41 40 38 37 37 38 41 42 42 41 41 40 35 34 37 32 32 40 48 50 53 53 53 60 60 53 45 34 30 29 27 28 31 36 40 42 44 45 45
17 19 21 23 24 25 27 28 29 29 29 31 33 34 35 36 37 37 38 40 42 43 46 49 50 52 53 53 52 51 50 49 46 46 48 46 42 38 38 41 41 41 42 43 43 43 42 40 38 37 36 37 40 42 42 44 45 44 39 33 29 29 33 42 47 45 51 54 51 56 61 60 54 41 32 29 27 28 31 33 39 44 45 45 46
16 19 21 22 24 25 27 28 29 29 30 31 33 34 35 37 38 39 42 44 46 47 48 51 53 54 56 56 56 54 52 50 46 42 41 38 34 34 34 37 39 40 41 42 43 43 43 41 39 37 36 36 38 40 41 44 47 48 46 40 30 32 40 41 39 36 41 51 51 51 55 58 56 48 39 33 30 30 31 33 40 46 47 47 47
16 18 19 21 23 26 27 28 29 29 30 31 33 34 35 36 37 38 41 44 47 49 50 52 53 55 57 58 58 56 52 51 47 40 37 34 28 28 29 32 35 38 39 41 43 43 42 40 38 37 36 36 35 36 39 40 44 49 51 47 40 37 38 40 39 34 32 40 47 50 51 52 52 49 45 42 35 32 33 35 41 46 49 50 48
16 17 19 21 24 27 27 27 28 29 30 31 32 33 35 36 37 38 40 42 45 49 51 53 55 56 58 59 59 57 52 48 45 40 39 37 30 26 28 31 33 34 35 38 40 39 39 38 37 36 36 35 33 34 38 37 38 47 51 49 45 40 37 43 51 48 42 40 41 47 49 48 49 47 47 49 43 37 38 38 40 46 49 51 50
15 17 19 21 25 26 27 27 28 29 30 31 32 33 34 35 37 39 41 43 45 48 50 52 55 57 58 60 59 57 53 47 44 43 43 41 33 29 30 31 30 30 31 34 36 35 35 36 36 36 35 35 34 35 38 37 37 43 46 48 49 43 41 41 53 57 51 46 43 46 49 46 47 48 47 50 48 43 44 44 43 45 49 50 50
16 18 18 21 24 26 26 26 27 29 30 31 32 33 34 36 37 39 42 45 47 48 50 51 53 56 58 60 59 56 53 49 47 45 43 41 36 31 33 34 31 29 30 31 32 32 33 35 35 35 35 35 35 35 37 37 38 41 42 44 48 48 47 42 45 56 51 49 50 51 53 52 50 51 49 50 51 47 47 50 48 45 45 48 50
16 17 18 21 25 25 26 27 28 30 31 31 32 33 35 36 37 39 42 45 47 48 50 52 53 55 58 60 60 57 54 50 48 46 42 38 37 33 32 35 35 32 32 31 29 29 31 35 35 35 35 34 34 33 34 36 37 40 41 42 45 50 52 47 38 51 54 50 52 53 55 59 56 53 52 52 52 50 49 52 53 50 47 46 49
Wind_Direction
6 20 15 10 8 6 8 14 20 13 4 354 347 333 330 324 313 304 302 306 309 309 309 310 308 302 294 293 293 297 301 300 292 279 271 264 256 250 248 245 244 241 240 240 242 244 244 244 246 249 249 252 254 258 257 246 236 242 249 245 237 232 233 231 228 230 228 220 221 231 239 243 245 241 225 203 200 204 201 200 199 194 194 191 189
1 15 21 11 6 7 6 10 19 16 10 360 356 335 328 326 318 306 299 302 306 308 304 304 304 297 292 293 296 299 303 305 302 293 281 273 270 266 263 259 256 250 248 245 245 246 248 248 247 249 250 253 253 253 255 253 244 240 246 245 239 233 233 232 229 232 233 225 216 225 236 240 242 231 214 197 198 202 198 198 197 191 192 189 188
359 14 26 16 5 6 7 10 17 17 11 1 358 345 339 333 324 317 306 302 304 307 306 302 299 293 287 286 291 296 298 302 304 302 294 285 279 275 275 273 271 265 259 253 251 250 249 249 248 248 248 251 254 253 251 254 251 243 243 242 239 236 235 234 231 232 234 228 215 217 227 232 234 226 210 194 193 197 198 198 194 190 191 191 190
356 17 31 23 9 7 8 8 14 17 10 359 355 350 351 344 332 325 319 317 310 302 305 305 298 292 286 281 283 287 290 293 295 298 295 293 292 289 287 281 278 275 272 265 259 257 255 253 250 248 248 248 251 253 249 251 254 248 242 240 241 240 238 236 234 231 232 225 215 212 216 225 223 223 209 194 193 195 198 198 195 194 193 192 190
352 9 20 24 15 12 11 5 7 12 15 2 349 341 342 345 338 327 318 322 321 305 302 302 295 291 285 280 279 280 283 284 286 289 288 290 294 296 297 294 287 281 280 276 270 265 262 261 256 251 249 248 248 250 248 248 252 252 245 241 244 244 241 237 235 232 229 222 216 211 210 220 221 218 206 194 199 195 195 199 196 194 193 193 190
351 355 356 2 5 1 359 359 358 1 10 5 350 331 324 328 330 326 319 319 323 314 305 301 296 293 288 285 279 276 277 276 276 281 282 284 289 291 295 297 296 293 287 283 281 276 268 264 263 258 253 251 249 249 248 247 249 251 249 246 245 247 246 240 237 231 226 219 214 211 206 215 218 217 209 196 198 196 194 199 198 192 194 195 189
340 340 345 347 349 347 344 349 349 346 353 350 339 325 316 317 321 321 316 315 319 316 312 306 302 298 294 291 285 282 279 275 274 279 284 285 286 287 288 290 294 296 291 288 286 284 276 266 263 263 259 255 253 252 250 248 248 249 250 249 246 247 250 245 237 229 223 217 212 208 204 209 213 212 211 200 193 194 193 196 198 191 193 194 187
328 333 339 337 337 341 341 344 339 329 317 306 292 299 305 310 317 314 309 312 314 309 308 305 302 299 294 289 284 283 280 277 277 281 287 286 283 283 284 284 287 289 286 286 285 283 279 271 265 264 264 260 257 257 254 251 249 249 249 248 246 248 252 250 238 229 225 218 212 207 204 207 209 206 202 200 190 189 192 194 197 191 192 193 189
355 346 340 334 332 333 335 337 332 322 300 287 274 274 271 278 293 300 303 308 305 302 304 303 302 300 294 288 284 285 284 280 277 277 282 286 286 285 287 285 285 284 279 281 284 280 274 271 266 262 262 260 257 257 255 252 252 251 250 247 245 247 252 253 240 229 229 222 212 204 205 209 211 206 196 195 192 189 191 193 195 192 193 193 189
25 4 344 339 334 327 323 325 324 320 304 291 274 263 257 258 267 278 289 292 293 294 296 296 299 301 299 294 287 287 287 283 279 275 277 284 287 286 287 285 286 285 282 284 285 278 271 268 264 258 254 253 251 251 252 251 252 252 252 248 244 247 250 249 242 233 228 224 214 206 206 211 212 209 197 190 195 195 193 194 195 195 195 193 190
18 6 357 346 335 323 315 316 317 316 310 302 288 269 256 251 256 265 276 280 282 283 285 285 286 289 293 295 290 287 286 283 282 280 281 285 283 282 282 282 284 284 283 284 283 276 269 264 263 260 253 250 249 248 247 247 250 251 252 250 246 245 248 244 238 235 229 223 218 211 207 209 209 207 199 191 196 199 195 193 196 197 195 193 192
14 2 0 351 345 338 332 328 325 323 321 315 305 293 273 259 255 257 264 273 277 279 282 284 282 281 283 286 283 282 283 282 283 283 283 282 281 282 280 281 284 285 282 278 277 274 268 262 260 261 257 251 248 247 246 245 245 248 250 251 249 241 242 242 234 233 230 222 218 213 207 208 207 203 201 197 197 201 200 195 194 194 193 193 194
26 21 22 17 19 15 12 8 2 357 348 340 327 317 301 286 271 263 264 266 269 274 276 281 284 282 281 281 277 276 277 278 281 284 284 279 279 282 280 279 283 284 281 275 272 271 267 263 258 257 258 254 250 248 246 246 244 243 246 247 250 244 240 242 235 231 228 222 218 214 209 207 204 201 205 205 200 202 204 202 198 194 193 193 194
44 41 42 37 39 37 34 32 27 25 19 12 1 348 333 316 299 284 276 269 267 268 271 275 280 280 279 280 279 276 275 274 277 282 284 282 280 280 280 279 281 282 281 275 270 268 267 266 262 257 256 255 253 250 246 247 246 242 242 242 246 246 242 241 236 231 227 222 218 214 210 208 205 205 209 208 205 204 205 207 205 197 196 196 197
49 49 50 47 47 44 42 38 34 33 29 26 22 16 8 355 337 314 296 284 278 274 273 273 275 278 277 278 277 275 277 276 276 277 278 280 283 283 283 282 282 283 281 277 272 269 268 268 264 259 255 254 253 251 246 246 247 243 240 240 243 244 242 240 237 233 230 223 217 215 212 211 210 211 213 212 211 209 205 207 208 203 204 203 202
50 54 53 51 48 44 41 37 32 29 26 24 22 21 18 15 8 355 335 310 293 284 280 276 274 275 274 275 274 274 278 278 276 276 273 274 279 283 284 283 283 282 280 277 274 272 270 269 265 261 256 254 253 251 247 245 247 245 243 240 240 242 241 239 237 234 231 223 218 218 216 215 213 213 216 217 217 213 207 206 208 208 208 204 203
52 52 48 47 43 38 34 30 26 21 18 16 14 12 11 10 9 6 1 349 330 307 291 283 277 275 273 272 272 272 273 273 273 277 278 275 273 275 279 282 285 284 281 275 273 273 271 270 267 263 257 255 255 254 251 248 246 245 244 240 238 240 239 236 236 233 229 223 219 221 220 218 214 213 215 216 217 214 209 210 210 209 207 204 203
48 43 40 39 34 30 24 20 17 12 10 8 6 3 360 358 358 357 356 356 352 342 324 303 289 281 276 273 272 271 269 268 269 273 279 282 278 278 279 280 284 285 282 276 271 270 271 269 268 265 259 255 255 256 255 253 250 247 244 242 240 240 239 234 233 232 229 224 220 221 222 219 216 213 213 212 215 216 214 215 213 207 206 205 203
38 35 32 29 25 20 15 14 10 8 6 3 0 356 353 349 347 345 344 345 345 346 342 333 317 299 286 278 275 273 271 269 268 269 273 279 280 280 280 277 277 281 280 276 271 268 269 268 267 265 261 256 254 254 256 256 255 253 248 245 243 243 242 235 230 230 229 227 222 221 221 220 218 215 214 213 214 218 217 217 214 206 206 208 208
30 26 24 20 17 13 10 9 5 3 0 357 354 350 348 343 339 335 333 332 332 334 335 335 331 321 303 287 279 276 273 271 269 269 269 272 275 276 279 280 279 278 275 273 272 269 267 268 267 265 262 258 256 255 254 254 256 256 252 248 246 247 246 240 233 231 230 229 223 220 220 220 220 218 217 215 215 219 218 215 213 208 206 210 212
26 21 18 14 9 5 3 0 355 353 351 351 349 346 345 342 339 334 330 326 325 324 323 324 324 325 318 302 287 279 276 274 271 268 267 266 269 272 275 278 282 281 275 271 271 270 268 269 269 267 264 260 259 259 256 254 255 255 253 251 249 249 249 246 240 235 233 229 223 220 220 220 220 220 218 215 215 218 218 214 211 209 207 209 212
23 18 14 8 3 359 355 352 349 349 349 349 347 345 344 342 340 337 333 329 325 323 320 318 315 315 316 314 303 287 280 279 276 272 269 267 267 272 275 275 278 280 278 273 268 269 271 270 270 269 266 263 261 261 261 259 257 254 253 252 251 249 250 249 244 238 235 230 224 221 219 220 221 220 217 215 215 218 219 216 213 211 210 210 210
19 15 10 5 2 357 353 352 351 350 349 347 346 345 344 343 341 338 336 332 328 326 323 320 316 311 308 309 309 301 289 282 280 278 276 274 271 271 277 279 279 278 278 276 268 268 271 268 266 266 266 265 263 260 260 261 258 254 253 253 252 250 249 249 245 237 235 231 226 223 220 220 222 222 218 215 215 218 220 218 216 215 215 212 209
18 13 9 5 2 359 357 356 355 353 350 348 347 346 345 344 342 340 338 334 331 327 325 322 320 316 309 303 303 303 299 291 282 279 279 280 278 273 274 279 283 281 276 273 268 267 269 266 263 263 263 263 264 261 259 260 259 256 254 253 251 250 249 248 245 239 236 233 228 225 222 220 222 223 221 218 216 218 221 220 218 217 216 212 209
16 10 6 5 3 0 359 358 357 354 352 351 349 347 346 344 343 342 340 337 334 330 327 323 321 319 314 306 301 299 299 297 290 283 281 283 284 280 277 278 282 285 282 276 270 269 268 266 263 260 258 260 263 262 259 259 259 258 255 253 252 249 248 246 244 243 237 233 231 226 222 220 222 224 223 220 218 218 221 220 219 219 217 212 210
11 7 6 6 4 1 0 359 355 353 352 351 349 347 346 345 344 342 341 339 336 333 330 326 324 321 318 313 306 300 297 296 295 290 284 282 283 282 280 279 281 283 283 281 276 272 268 267 264 260 258 258 260 262 262 260 259 258 255 253 252 249 248 245 243 244 238 231 230 226 221 219 222 225 224 223 220 222 224 220 218 220 218 213 210
10 8 7 6 4 1 0 357 354 353 353 351 348 347 346 347 347 345 342 340 338 335 333 330 328 325 322 319 313 307 301 297 296 294 290 285 282 282 281 279 280 281 280 280 280 276 271 269 267 263 261 259 258 262 264 261 258 257 254 252 252 249 246 243 241 243 239 231 227 223 219 219 222 224 224 225 223 225 228 223 218 219 218 214 209
12 9 8 6 3 2 1 357 356 355 353 352 349 348 349 349 348 347 344 341 339 336 333 331 329 328 325 323 320 314 307 301 298 295 293 289 284 282 282 282 281 280 279 278 279 279 276 273 272 268 265 262 259 260 263 260 256 255 255 252 251 248 245 242 241 242 238 231 226 222 220 220 221 222 222 225 226 225 227 225 220 218 219 216 211
10 8 6 4 3 2 0 357 356 355 353 350 348 348 348 349 348 347 346 342 339 336 333 331 329 328 326 324 323 320 315 309 305 300 296 292 289 284 281 283 283 281 280 278 279 282 282 280 277 273 269 266 262 260 259 255 254 257 256 253 250 248 245 242 239 240 236 228 225 224 222 221 221 221 221 225 227 224 224 226 223 220 220 218 212
7 6 5 3 2 360 358 356 356 353 350 347 345 345 344 344 345 344 344 342 340 337 333 331 330 329 327 325 324 321 319 315 312 309 303 297 292 289 284 281 281 283 283 280 280 280 283 283 279 279 274 266 263 260 256 254 256 259 257 253 252 249 247 244 237 235 235 228 225 226 225 224 222 221 221 224 225 222 221 224 225 222 221 217 213
6 3 3 3 0 357 356 356 354 351 347 346 344 344 343 342 342 342 342 342 341 339 336 332 329 328 328 327 325 323 320 317 315 312 310 305 298 293 289 285 281 282 284 283 282 279 280 279 276 280 278 270 263 259 255 253 255 258 257 255 254 251 246 242 235 230 232 229 226 228 228 226 225 224 221 222 223 221 221 223 225 225 222 218 214
5 3 3 2 359 357 357 356 353 350 348 347 347 346 346 345 345 344 343 343 343 342 341 338 334 331 329 327 326 325 322 319 316 313 311 308 304 299 295 292 286 282 283 284 284 281 280 277 274 274 278 281 270 259 255 250 252 257 256 256 252 246 244 241 234 227 229 230 228 228 227 226 226 224 221 221 221 223 224 224 225 225 221 216 211
6 4 3 2 360 357 355 354 351 349 349 349 350 351 350 348 347 346 343 342 341 341 341 340 339 336 333 331 329 328 326 322 318 315 312 308 304 302 300 298 294 288 284 284 285 284 281 278 276 272 275 286 274 258 254 248 248 256 255 253 249 243 244 242 235 228 228 229 227 225 223 223 222 220 222 222 220 224 227 226 225 223 219 214 209
7 4 4 4 1 356 351 350 348 347 348 348 349 349 347 345 343 341 339 337 336 336 336 337 337 336 335 334 332 330 329 326 322 317 313 309 304 301 301 300 300 298 291 288 287 286 285 280 278 277 275 285 280 260 250 246 245 251 254 251 247 244 243 242 237 231 228 228 227 226 225 223 222 221 224 223 221 225 228 226 226 222 218 216 211
7 5 5 3 358 353 349 347 345 343 342 343 345 344 342 341 339 338 337 336 336 335 334 334 334 334 334 334 333 331 329 327 324 320 314 310 306 301 300 300 301 302 299 296 293 290 290 285 279 279 276 281 288 264 244 242 243 246 251 249 245 242 240 238 237 231 227 228 227 227 227 225 224 224 225 225 224 226 226 225 225 221 218 217 212
7 5 3 1 357 353 349 345 341 338 337 340 342 340 339 338 337 337 337 337 337 336 335 333 333 334 334 333 332 330 328 326 323 320 315 310 307 302 300 300 301 301 301 299 299 296 295 292 282 280 279 276 286 275 248 239 241 245 248 247 243 239 237 235 234 231 227 228 229 227 227 226 226 226 226 227 225 224 224 224 223 220 219 217 212
5 4 2 360 357 353 348 344 340 338 340 342 341 339 337 336 336 336 336 336 337 336 336 335 335 334 333 331 330 327 324 322 321 318 315 311 307 304 300 300 300 300 300 300 299 299 299 299 289 281 283 277 277 286 267 244 239 243 244 242 240 236 234 232 232 231 229 230 231 229 229 229 228 228 228 225 223 222 222 222 222 219 216 210 205
2 1 1 0 358 354 349 344 341 341 344 343 341 338 337 337 338 338 337 337 336 336 336 335 334 332 329 327 324 322 320 318 317 316 313 310 307 304 301 300 299 298 299 299 298 299 299 302 298 287 284 282 275 281 289 263 242 239 240 237 234 233 232 231 230 231 231 232 231 230 230 231 231 230 229 224 220 220 218 218 220 220 218 209 200
359 359 0 1 359 355 350 346 344 344 345 342 339 337 337 338 338 339 338 337 336 335 335 333 331 329 326 324 321 320 319 316 314 313 309 307 304 302 301 299 298 297 296 297 297 298 298 300 303 297 288 284 278 272 286 288 254 235 233 232 228 229 230 229 229 228 231 233 231 233 232 231 231 229 227 224 220 218 216 215 217 223 228 214 200
357 359 1 2 359 355 352 349 347 346 343 339 338 337 338 339 339 339 338 337 335 333 332 331 330 329 327 326 323 320 319 316 313 310 305 301 298 296 297 297 296 295 293 294 295 296 298 298 300 303 297 287 280 271 272 292 277 240 228 228 226 226 228 228 228 226 226 228 226 228 229 229 229 225 222 221 219 216 213 213 216 225 224 203 192
357 360 2 2 1 357 352 350 348 345 343 340 340 340 341 341 340 339 337 334 332 330 331 332 331 330 330 328 324 321 321 319 316 312 305 299 294 291 291 292 292 292 291 291 293 293 294 297 298 301 304 296 285 276 271 280 287 262 231 226 226 224 225 226 227 226 225 225 221 218 216 216 217 214 211 212 214 214 212 211 213 215 204 189 185
358 360 1 2 360 356 353 351 349 346 345 343 341 341 342 342 339 337 334 332 332 331 331 333 333 331 330 328 326 324 324 322 319 315 310 302 294 290 287 287 289 289 289 288 289 290 289 292 296 298 302 302 292 284 280 278 283 277 244 226 223 221 220 221 223 224 224 225 225 218 208 202 199 199 198 200 205 208 210 211 209 206 196 186 184
357 358 360 1 359 356 353 350 347 345 345 343 342 341 341 341 338 335 333 331 330 330 330 332 333 331 330 329 329 328 325 322 319 314 310 306 298 290 285 284 286 286 286 286 285 285 286 287 291 296 298 299 295 286 285 280 273 278 259 228 220 218 214 216 219 220 221 222 224 222 217 212 205 199 197 197 198 200 205 206 204 203 195 187 186
355 359 359 359 357 353 350 347 344 343 343 342 341 341 339 338 336 333 332 329 328 327 328 330 332 332 331 331 331 328 324 320 316 311 306 305 302 292 283 279 280 283 283 283 283 282 282 284 285 291 295 295 294 288 286 280 264 268 267 235 218 216 214 214 214 217 219 218 219 221 221 220 215 207 203 201 201 200 201 202 202 201 196 190 187
354 357 357 356 354 350 347 344 341 340 341 341 340 341 339 337 335 333 332 330 330 330 330 331 333 333 332 331 330 328 325 320 316 310 305 305 304 295 283 278 276 278 281 280 280 280 278 281 283 287 292 290 290 288 285 279 263 257 264 252 225 211 216 215 210 212 214 211 212 215 218 220 216 210 207 206 209 207 202 202 203 200 195 193 189
351 354 354 353 350 347 346 342 339 339 339 339 340 340 340 340 339 338 337 336 335 334 333 331 332 333 332 331 330 329 327 322 317 312 308 308 307 297 286 281 278 276 279 279 278 278 276 278 282 283 288 288 284 284 283 279 268 259 259 264 255 230 221 214 204 204 207 209 209 208 212 215 212 209 207 207 212 212 205 201 201 198 192 192 189
347 349 349 350 347 345 345 342 339 338 338 339 340 341 340 341 340 338 338 336 334 333 333 331 329 330 330 330 329 327 326 323 320 315 310 307 304 300 295 290 285 279 277 279 277 276 276 278 280 280 285 286 279 277 278 278 275 266 259 260 267 260 238 218 206 198 193 201 207 208 209 209 208 208 208 207 210 212 207 199 196 196 191 187 185
343 344 344 345 346 345 344 342 338 337 338 338 339 340 340 340 339 337 336 334 331 330 331 331 330 329 327 327 326 325 325 322 317 311 303 301 294 292 297 293 287 282 276 276 277 277 277 276 276 279 282 280 274 273 276 278 275 270 264 258 263 274 264 233 216 208 195 189 195 201 205 205 205 206 208 211 213 212 208 203 198 195 189 184 180
339 340 341 342 344 344 343 342 339 337 338 338 338 339 339 338 337 335 334 333 330 329 329 330 330 328 326 326 325 324 323 319 314 308 302 300 293 278 281 284 280 279 275 273 274 275 276 275 273 277 279 274 274 278 277 275 272 269 269 264 260 269 278 251 221 211 203 191 186 190 193 196 199 202 206 211 212 211 207 207 204 196 189 185 181
340 339 338 340 343 344 342 342 341 338 338 338 337 338 338 337 335 332 332 331 330 329 328 328 329 328 327 327 326 323 321 318 314 311 305 301 296 279 269 273 273 273 273 272 273 272 269 271 273 273 272 271 273 279 278 273 271 268 266 267 262 261 276 270 226 208 204 196 189 189 189 189 192 196 200 204 205 205 202 204 204 200 195 189 184
341 338 337 341 344 343 341 342 342 339 338 337 336 336 336 335 333 331 329 328 328 327 327 328 328 329 329 328 327 323 320 318 315 313 307 300 299 289 274 270 270 268 269 272 276 273 267 266 269 269 266 269 274 278 278 272 270 270 265 265 264 259 266 274 245 210 202 198 192 188 190 191 190 192 195 199 201 200 198 200 203 203 202 194 185